Regional Weather Roundup
Issued by NWS

Home | Current Version | Previous Version | Graphics & Text | Print | Product List | Glossary On
Versions: 1 2 3 4 5 6 7 8 9 10 11 12 13 14 15 16 17 18 19 20 21 22 23 24 25 26 27 28 29 30 31 32 33 34 35 36 37 38 39 40 41 42 43 44 45 46 47 48 49 50
000
ASUS45 KTFX 270219
RWRMT
MONTANA HOURLY WEATHER ROUNDUP
NATIONAL WEATHER SERVICE GREAT FALLS MT
819 PM MDT THU MAR 26 2015

NOTE: "FAIR" INDICATES FEW OR NO CLOUDS BELOW 12000 FEET WITH NO
SIGNIFICANT WEATHER AND/OR OBSTRUCTIONS TO VISIBILITY.

* THESE STATIONS ARE NOT UNDER NWS QUALITY CONTROL. THEY DO NOT
   REPORT WEATHER SUCH AS PRECIPITATION OR FOG.

MTZ001>007-043-270300-
WEST OF THE DIVIDE
CITY           SKY/WX    TMP DP  RH WIND       PRES   REMARKS
KALISPELL      CLOUDY    45  45 100 CALM      30.25S
MISSOULA       PTCLDY    52  39  61 CALM      30.28F
BUTTE          PTCLDY    50  34  54 NW12      30.29R
MULLAN PASS    MOCLDY    43  37  79 SW6       30.30F
* ESSEX        N/A       45  40  83 N/A        N/A
* EUREKA APT   PTCLDY    52  43  72 SE9       30.23R
* HAMILTON APT PTCLDY    57  37  47 E2        30.29S
* LIBBY APT    PTCLDY    55  37  51 CALM      30.23R
* LINCOLN      N/A       50  38  64 SW5G13     N/A
* LOOKOUT PASS N/A       45  41  86 N/A        N/A
* POLSON       N/A       50  42  74 N/A        N/A
* SEELEY LAKE  N/A       48  41  77 NE1        N/A
* THOMP F APT  PTCLDY    46  27  48 N2         N/A
$$

MTZ008-052>055-270300-
SOUTHWEST MONTANA
CITY           SKY/WX    TMP DP  RH WIND       PRES   REMARKS
BOZEMAN        CLOUDY    55  34  45 W15       30.22S
DILLON         MOCLDY    54  34  47 W10       30.27S
* W YELLOWSTON PTCLDY    41  31  68 SW3G9      N/A
* BOULDER HILL N/A       49  29  46 SW3G13     N/A
* HOMESTAKE PS N/A       47  32  56 NW9G17     N/A
* MONIDA PASS  N/A       46  32  58 N9         N/A
* RAYNOLDS PAS N/A       39  21  48 SE9        N/A   WCI  33
* WHITEHALL    N/A       60  35  39 W10G18     N/A
* WISE RIVER   N/A       51  33  50 W14G25     N/A
$$

MTZ009>010-012-014-046-048-049-054-270300-
EAST SLOPES AND CENTRAL MONTANA
CITY           SKY/WX    TMP DP  RH WIND       PRES   REMARKS
GREAT FALLS    PTCLDY    54  36  51 SW14      30.11R
HELENA         MOCLDY    55  37  51 W12G22    30.21S
MALMSTROM AFB  MOCLDY    59  37  44 SW14G22   30.11R
* CONRAD       MOCLDY    57  37  47 SW18G29    N/A
* DEARBORN     N/A       57  37  47 S6         N/A
* EAST GLACIER N/A       48  37  66 W19G26     N/A
* MONARCH      N/A       51  27  39 W20G27     N/A
* PENDROY      N/A       52  31  45 W16        N/A
* ROGERS PASS  N/A       45  36  71 SE11G24    N/A
* WHITE SULPH  N/A       49  34  56 W4G12      N/A
$$

MTZ011-013-016-021-035-040-045-047-050-051-270300-
NORTH CENTRAL MONTANA
CITY           SKY/WX    TMP DP  RH WIND       PRES   REMARKS
HAVRE          CLOUDY    57  37  47 W14       30.02R
LEWISTOWN      CLOUDY    57  36  46 NW10      30.09R
* N BAR RANCH  MOCLDY    55  34  45 NW15G21   30.07R
* CHINOOK      CLOUDY    57  37  47 W5        30.00R
* FORT BENTON  CLOUDY    61  36  39 W15       30.08R
* DENTON       N/A       59  31  35 NW11G20    N/A
* GEYSER       N/A       57  30  36 W24G30     N/A
* JUDITH GAP   N/A       57  31  37 W19G26     N/A
* LOMA         N/A       62  36  38 W12G22     N/A
$$

MTZ017>020-022>027-061-062-270300-
NORTHEAST MONTANA
CITY           SKY/WX    TMP DP  RH WIND       PRES   REMARKS
GLASGOW        CLOUDY    45  34  65 E14       30.04F
GLENDIVE       CLOUDY    45  32  60 E8        30.11S
JORDAN         CLOUDY    52  34  50 SE6       30.03S
SIDNEY         CLOUDY    39  30  70 SE7       30.14S WCI  34
WOLF POINT     CLOUDY    43  36  76 E9        30.09S
* BEAVER HILL  N/A       40  32  73 E12G18     N/A   WCI  33
* CIRCLE       N/A       47  33  58 E4G9       N/A
* LINDSAY DVD  N/A       41  32  70 E9         N/A
* NAVAJO       N/A       35  31  85 SE6        N/A   WCI  30
* PLENTYWOOD A MOCLDY    39  30  70 SE5       30.11F WCI  35
* POPLAR APT   CLOUDY    41  34  76 E10       30.10F
* SACO         N/A       46  34  63 E12        N/A
$$

MTZ028>042-056>058-270300-
SOUTHCENTRAL AND SOUTHEAST MONTANA
CITY           SKY/WX    TMP DP  RH WIND       PRES   REMARKS
BAKER          CLOUDY    41  32  70 SE13      30.12S
BILLINGS       MOCLDY    61  36  39 W15       30.07S
LIVINGSTON     MOCLDY    55  34  45 W10       30.19R
MILES CITY     CLOUDY    50  30  46 E8        30.06S
* BIG TIMBER A MOCLDY    57  36  46 SW23G33   30.14R
* FORSYTH APT  CLOUDY    54  39  57 SE3       30.06F
* ALZADA       N/A       44  32  63 E4         N/A
* HYSHAM       N/A       54  31  42 N1         N/A
* LAME DEER    N/A       49  33  54 N/A        N/A
* REED POINT   N/A       60  32  35 W15G24     N/A
* ROSCOE HILL  N/A       56  17  22 SW6G12     N/A
$$

REGIONAL REPORTS...DAKOTAS
CITY           SKY/WX    TMP DP  RH WIND       PRES   REMARKS
WILLISTON      CLOUDY    39  27  62 SE12      30.14F WCI  32
DICKINSON      CLOUDY    34  27  76 SE8       30.15S WCI  27
BEACH          CLOUDY    37  32  82 SE12      30.14S WCI  29
CROSBY         CLEAR     34  28  79 SE8       30.16F WCI  27
TIOGA          CLEAR     32  27  82 SE8       30.19F WCI  25
WATFORD CITY   CLEAR     37  27  67 SE10      30.14F WCI  30
BISMARCK       MOCLDY    28  19  69 E8        30.24R WCI  20
GRAND FORKS    FAIR      21  16  81 N7        30.31R WCI  12
FARGO          PTCLDY    25  10  53 N9        30.29R WCI  16
BUFFALO SD     CLOUDY    39  32  76 E9        30.08R WCI  33
RAPID CITY     CLOUDY    37  28  70 E12       30.15R WCI  29
$$

REGIONAL REPORTS...WYOMING/IDAHO/WASHINGTON
CITY           SKY/WX    TMP DP  RH WIND       PRES   REMARKS
GILLETTE       CLOUDY    48  36  63 W6        30.08F
SHERIDAN       CLOUDY    54  37  53 N9        30.09S
CODY           PTCLDY    54  30  40 W14G21    30.16R
YELLOWSTONE LA PTCLDY    37  30  76 CALM      30.38R
SALMON         CLEAR    N/A N/A N/A S3        30.27S
MULLAN PASS    MOCLDY    43  37  79 SW6       30.30S
SAND POINT     MOCLDY    54  46  74 CALM      30.24F
SPOKANE        MOCLDY    61  45  56 CALM      30.22F
$$

REGIONAL REPORTS...ALBERTA
CITY           SKY/WX    TMP DP  RH WIND       PRES   REMARKS
CALGARY        MOCLDY    59  30  33 W20G30    29.98R
LETHBRIDGE     MOCLDY    55  39  55 W30G38    30.01F
MEDICINE HAT   CLOUDY    55  37  51 W7        29.97R
EDMONTON       MOCLDY    43  34  71 S9        29.92S
WATERTON GATE  N/A       48  37  66 SW22G30    N/A
CARDSTON       N/A       54  39  57 W20G26     N/A
MILK RIVER     N/A       54  37  53 W21        N/A
$$

REGIONAL REPORTS...SASKATCHEWAN
CITY           SKY/WX    TMP DP  RH WIND       PRES   REMARKS
SWIFT CURRENT  CLOUDY    45  32  60 SE8       29.98S
REGINA         MOCLDY    34  30  85 SE17      30.11F WCI  23
VAL MARIE      N/A       46  32  58 SE8        N/A
ASSINIBOIA     N/A       37  32  82 SE9        N/A   WCI  30
CORONACH       N/A       36  32  85 SE10       N/A   WCI  29

$$



USA.gov is the U.S. government's official web portal to all federal, state and local government web resources and services.